Regional Weather Roundup
Issued by NWS Bismarck, ND

Home | Current Version | Previous Version | Text Only | Print | Product List | Glossary On
Versions: 1 2 3 4 5 6 7 8 9 10 11 12 13 14 15 16 17 18 19 20 21 22 23 24 25 26 27 28 29 30 31 32 33 34 35 36 37 38 39 40 41 42 43 44 45 46 47 48 49 50
000
ASUS43 KBIS 260910
RWRBIS

NWR BROADCAST TEXT
NATIONAL WEATHER SERVICE BISMARCK ND
400 AM CDT THU MAY 26 2016

NOTE: "FAIR" INDICATES FEW OR NO CLOUDS BELOW 12,000 FEET WITH NO
SIGNIFICANT WEATHER AND/OR OBSTRUCTIONS TO VISIBILITY.


CITY           SKY/WX    TMP DP  RH WIND       PRES   REMARKS
WILLISTON      MOCLDY    46  44  93 W3        29.81S
MINOT          CLOUDY    58  55  90 W9        29.74R
MINOT AFB      CLOUDY    55  55  99 NW6       29.72S FOG
BISMARCK       CLEAR     47  45  93 SW5       29.80F
DICKINSON      CLEAR     43  39  86 W7        29.80F
GARRISON         N/A     52  50  93 NW16      29.77S
HETTINGER ARPT CLEAR     38  35  89 CALM      29.86S
JAMESTOWN      CLOUDY    56  54  93 W12       29.73F
BEACH          FAIR      43  43 100 CALM      29.85F
CARRINGTON     FAIR      55  55 100 SW6       29.76R FOG
HAZEN          FAIR      45  45 100 W5        29.82S
LINTON           N/A     45  45 100 W7          N/A
MANDAN         FAIR      46  46 100 W9        29.81R
OAKES            N/A    N/A N/A N/A MISG        N/A
RUGBY          CLOUDY    54  54 100 CALM      29.73S
STANLEY        CLOUDY    52  52 100 W14       29.80R FOG
WATFORD CITY   FAIR      41  41 100 CALM      29.81S FOG
$$

CITY           SKY/WX    TMP DP  RH WIND       PRES   REMARKS
GRAND FORKS    CLOUDY    57  55  93 S7        29.68F
GRAND FORKS AF CLOUDY    55  55  99 SW2       29.69S
DEVILS LAKE    CLOUDY    54  54 100 W5        29.73R
FARGO          PTCLDY    53  51  93 S6        29.74R FOG
CAVALIER       CLOUDY    57  57 100 W8        29.65S
GRAFTON        CLOUDY    57  57 100 W12       29.68F
GWINNER        FAIR      54  52  94 SW8       29.76R
LANGDON        CLOUDY    55  55 100 NW15      29.69S
ROLLA          LGT RAIN  54  54 100 N9        29.75S
WALHALLA       FAIR      57  57 100 W9        29.65S
$$

CITY           SKY/WX    TMP DP  RH WIND       PRES   REMARKS
ABERDEEN       CLEAR     53  49  86 W8        29.79S
MOBRIDGE       CLEAR     49  46  90 SE3       29.82S
BUFFALO          N/A     43  39  86 S6        29.80F
RAPID CITY     CLEAR     44  42  93 N3        29.88F
GLASGOW        CLOUDY    48  44  86 N5        29.82F
SIDNEY         CLOUDY    47  44  90 CALM      29.81F
WOLF POINT     CLOUDY    45  42  89 CALM      29.83S
GLENDIVE       CLOUDY    52  46  82 W8        29.84F
MILES CITY     CLOUDY    48  43  82 W8        29.86F
BAKER          PTCLDY    46  42  86 W9        29.86R
$$

CITY           SKY/WX    TMP DP  RH WIND       PRES   REMARKS
BILLINGS       MOCLDY    51  42  71 SW14      29.93R
GREAT FALLS    CLOUDY    44  42  93 SW9       29.94R
REGINA         LGT RAIN  52  52 100 N10       29.83S
ESTEVAN        LGT RAIN  54  52  94 NW6       29.76S
$$





USA.gov is the U.S. government's official web portal to all federal, state and local government web resources and services.